     2              OBSERVATION DATA    GPS                 RINEX VERSION / TYPE
teqc 1997Sep10 19971030 21:29:11UTC                         PGM / RUN BY / DATE
                                                            COMMENT
Original Marker Name: 55469.KANE                            COMMENT
Campaign Name: NGS Imperial Valley 1990                     COMMENT
4-Character Station Name: KANE                              COMMENT
6-Character Antenna Code: TI4100                            COMMENT
Vertical Measurement Point: PAE                             COMMENT
Vertical Offset to Rinex Ref. Point: 0.0000                 COMMENT
Radial Measurement Point: RRP                               COMMENT
Radial Offset to Rinex Ref. Point: 0.0000                   COMMENT
Antenna Height from Field Measurement: 1.0250 m             COMMENT
Original XYZ: -2330756.3107 -4816199.5739 3459581.4965      COMMENT
New XYZ position is based on association with SCEC monument COMMENT
E1C8Y9N7+0011. Position of that monument is believed to be  COMMENT
valid to within 1 m horizontally; vertical accuracy         COMMENT
should be no worse than 3-times this value.                 COMMENT
                                                            COMMENT
Revised Rinex header created by UCSD GPS archive for        COMMENT
GSAC on 10-Apr-1999 (1999:100) 07:59:19 GMT                 COMMENT
For assistance contact dagnew@ucsd.edu or hjohnson@ucsd.edu COMMENT
                                                            COMMENT
KANE 1939                                                   MARKER NAME
05 NATIONAL GEODETIC SURVEY                                 OBSERVER / AGENCY
111 TI 4100 1.9                                             REC # / TYPE / VERS
4053 TI 4100                                                ANT # / TYPE
 -2330818.0000 -4816432.0000  3459675.0000                  APPROX POSITION XYZ
        1.0250        0.0000        0.0000                  ANTENNA: DELTA H/E/N
     1     1     0                                          WAVELENGTH FACT L1/2
     4    P1    P2    L1    L2                              # / TYPES OF OBSERV
    15                                                      INTERVAL
  1990     2    22    10     9   14.000000                  TIME OF FIRST OBS
  1990     2    22    10    40   59.000000                  TIME OF LAST OBS
     0                                                      # OF SATELLITES
                                                            END OF HEADER
 90  2 22 10  9 14.0800000  0  4G 3G16G19G13
  21321590.605    21321593.856    49714097.577 8 -84574088.285 7
  22809542.100    22809542.338     3573691.285 8 -13854164.199 7
  23565568.592    23565569.560    10415203.256 8  -8296104.219 6
  22850622.653    22850628.170    98600165.603 7-109785271.307 7
 90  2 22 10  9 29.0800000  0  4G 3G16G19G13
  21320669.204    21320670.828    49709251.314 8 -84577864.594 7
  22800085.130    22800090.063     3524011.410 9 -13892875.817 7
  23571256.664    23571260.120    10445101.555 8  -8272806.800 7
  22855075.502    22855080.103    98623560.676 8-109767041.386 8
 90  2 22 10  9 44.0800000  0  4G 3G16G19G13
  21319753.474    21319755.671    49704437.434 8 -84581615.670 7
  22790640.123    22790644.604     3474379.088 9 -13931550.296 8
  23576963.486    23576964.748    10475067.109 7  -8249457.037 8
  22859531.212    22859537.899    98646979.106 8-109748793.292 8
 90  2 22 10  9 59.0800000  0  4G 3G16G19G13
  21318843.525    21318847.005    49699656.039 9 -84585341.446 8
  22781205.388    22781208.046     3424794.623 8 -13970187.522 8
  23582672.307    23582677.492    10505099.724 7  -8226055.085 7
  22863993.201    22863997.567    98670421.020 8-109730526.868 7
 90  2 22 10 10 14.0800000  0  4G 3G16G19G13
  21317939.613    21317941.893    49694907.093 8 -84589041.917 7
  22771778.838    22771782.713     3375258.363 8 -14008787.211 8
  23588400.849    23588405.182    10535198.825 7  -8202601.222 7
  22868456.931    22868463.033    98693886.413 7-109712242.167 7
 90  2 22 10 10 29.0800000  0  4G 3G16G19G13
  21317041.198    21317044.134    49690190.787 9 -84592716.966 7
  22762360.451    22762365.793     3325770.832 8 -14047348.903 8
  23594143.439    23594145.652    10565364.267 7  -8179095.677 8
  22872927.047    22872932.325    98717375.283 7-109693939.190 9
 90  2 22 10 10 44.0800000  0  4G 3G16G19G13
  21316150.506    21316154.518    49685507.142 8 -84596366.559 7
  22752953.268    22752957.756     3276332.072 8 -14085872.572 8
  23599895.172    23599900.454    10595595.748 8  -8155538.752 7
  22877401.638    22877407.435    98740887.687 7-109675617.845 8
 90  2 22 10 10 59.0800000  0  4G 3G16G19G13
  21315265.568    21315266.850    49680856.184 8 -84599990.677 7
  22743553.327    22743557.699     3226942.624 7 -14124357.846 9
  23605663.735    23605662.891    10625892.400 7  -8131930.908 6
  22881878.843    22881885.288    98764423.683 8-109657278.124 7
 90  2 22 10 11 14.0800000  0  4G 3G16G19G13
  21314386.298    21314389.150    49676238.242 9 -84603589.062 7
  22734165.568    22734168.704     3177602.950 8 -14162804.341 7
  23611438.607    23611440.268    10656254.344 8  -8108272.279 6
  22886364.014    22886368.457    98787983.527 7-109638919.811 8
 90  2 22 10 11 29.0800000  0  4G 3G16G19G13
  21313513.496    21313517.581    49671653.411 8 -84607161.665 7
  22724786.020    22724790.522     3128313.363 8 -14201211.804 9
  23617225.389    23617232.931    10686681.360 7  -8084562.953 7
  22890851.019    22890857.250    98811567.525 8-109620542.703 7
 90  2 22 10 11 44.0800000  0  4G 3G16G19G13
  21312648.134    21312652.216    49667101.635 8 -84610708.527 8
  22715415.067    22715419.916     3079074.110 8 -14239580.011 8
  23623035.311    23623034.851    10717172.902 8  -8060803.280 7
  22895345.516    22895349.339    98835175.569 8-109602146.830 8
 90  2 22 10 11 59.0800000  0  4G 3G16G19G13
  21311788.381    21311789.757    49662582.974 8 -84614229.543 7
  22706056.921    22706059.133     3029885.519 9 -14277908.746 8
  23628843.085    23628847.496    10747728.528 7  -8036993.739 7
  22899842.321    22899846.277    98858807.878 6-109583732.071 8
 90  2 22 10 12 14.0800000  0  4G 3G16G19G13
  21310936.038    21310937.318    49658097.566 8 -84617724.680 7
  22696705.828    22696708.969     2980748.063 9 -14316197.703 8
  23634671.254    23634676.797    10778347.664 7  -8013134.686 7
  22904344.363    22904347.495    98882464.442 7-109565298.380 7
 90  2 22 10 12 29.0800000  0  4G 3G16G19G13
  21310087.331    21310089.465    49653645.511 8 -84621193.803 7
  22687363.377    22687369.122     2931662.173 7 -14354446.434 9
  23640514.115    23640515.125    10809030.063 7  -7989226.337 8
  22908847.097    22908853.488    98906145.173 7-109546845.897 8
 90  2 22 10 12 44.0800000  0  4G 3G16G19G13
  21309245.983    21309249.221    49649226.792 8 -84624636.979 7
  22678034.510    22678037.627     2882628.040 8 -14392654.784 7
  23646361.566    23646366.577    10839775.506 8  -7965268.877 8
  22913359.507    22913364.841    98929850.268 6-109528374.423 8
 90  2 22 10 12 59.0800000  0  4G 3G16G19G13
  21308412.358    21308414.493    49644841.743 9 -84628053.892 6
  22668713.414    22668715.122     2833646.197 9 -14430822.446 8
  23652223.027    23652227.262    10870583.667 8  -7941262.491 6
  22917872.619    22917879.681    98953579.744 7-109509883.936 7
 90  2 22 10 13 14.0800000  0  4G 3G16G19G13
  21307584.686    21307587.164    49640490.311 9 -84631444.622 7
  22659402.090    22659405.672     2784716.736 8 -14468949.314 8
  23658098.366    23658104.183    10901454.431 8  -7917207.389 7
  22922394.722    22922401.582    98977333.824 6-109491374.300 7
 90  2 22 10 13 29.0800000  0  4G 3G16G19G13
  21306761.506    21306766.233    49636172.569 8 -84634809.105 7
  22650100.849    22650106.429     2735840.399 8 -14507034.753 8
  23663983.268    23663987.585    10932387.258 8  -7893103.912 8
  22926919.088    22926926.324    99001112.421 8-109472845.534 7
 90  2 22 10 13 44.0800000  0  4G 3G16G19G13
  21305946.658    21305950.250    49631888.669 8 -84638147.204 8
  22640810.033    22640813.083     2687017.154 8 -14545078.795 7
  23669884.549    23669888.210    10963381.613 7  -7868952.459 7
  22931451.001    22931456.067    99024915.429 7-109454297.757 8
 90  2 22 10 13 59.0800000  0  4G 3G16G19G13
  21305137.783    21305141.897    49627638.780 8 -84641458.807 7
  22631531.590    22631532.619     2638247.744 9 -14583080.938 7
  23675791.013    23675795.175    10994437.242 7  -7844753.280 6
  22935985.106    22935990.319    99048743.244 8-109435730.638 7
 90  2 22 10 14 14.0800000  0  4G 3G16G19G13
  21304336.958    21304339.623    49623422.965 8 -84644743.857 7
  22622258.862    22622263.585     2589532.372 8 -14621040.973 7
  23681713.094    23681718.546    11025553.760 8  -7820506.672 7
  22940524.554    22940529.399    99072596.125 8-109417144.007 8
 90  2 22 10 14 29.0800000  0  4G 3G16G19G13
  21303540.651    21303543.634    49619241.223 9 -84648002.370 7
  22612999.749    22613003.750     2540871.259 8 -14658958.676 8
  23687649.540    23687649.775    11056730.902 9  -7796212.808 7
  22945068.185    22945073.671    99096473.982 7-109398537.885 8
 90  2 22 10 14 44.0800000  0  4G 3G16G19G13
  21302751.673    21302755.267    49615093.675 8 -84651234.226 7
  22603752.535    22603751.908     2492264.948 8 -14696833.705 7
  23693589.157    23693594.819    11087967.925 7  -7771872.232 7
  22949615.891    22949621.697    99120376.803 7-109379912.331 7
 90  2 22 10 14 59.0800000  0  4G 3G16G19G13
  21301969.018    21301970.208    49610980.544 9 -84654439.259 7
  22594509.448    22594514.705     2443713.684 8 -14734665.881 7
  23699548.660    23699550.941    11119264.825 7  -7747485.055 7
  22954168.810    22954173.345    99144304.806 7-109361267.133 7
 90  2 22 10 15 14.0800000  0  4G 3G16G19G13
  21301193.318    21301195.265    49606901.744 8 -84657617.555 6
  22585283.968    22585287.268     2395217.952 8 -14772454.721 8
  23705515.141    23705518.028    11150621.295 7  -7723051.484 9
  22958726.619    22958732.106    99168258.060 7-109342602.287 8
 90  2 22 10 15 29.0800000  0  4G 3G16G19G13
  21300422.794    21300425.689    49602857.365 8 -84660769.014 7
  22576065.859    22576069.628     2346778.083 9 -14810200.048 7
  23711491.716    23711497.714    11182036.933 8  -7698571.782 8
  22963291.604    22963295.295    99192236.406 7-109323917.851 7
 90  2 22 10 15 44.0800000  0  4G 3G16G19G13
  21299661.033    21299663.424    49598847.858 8 -84663893.310 8
  22566857.407    22566860.804     2298394.332 9 -14847901.671 8
  23717479.763    23717484.131    11213511.458 7  -7674046.226 7
  22967860.015    22967863.370    99216240.292 7-109305213.566 7
 90  2 22 10 15 59.0800000  0  4G 3G16G19G13
  21298904.049    21298906.511    49594872.970 8 -84666990.635 7
  22557662.486    22557666.185     2250067.089 8 -14885559.243 8
  23723480.065    23723484.884    11245044.299 6  -7649475.199 7
  22972432.524    22972436.976    99240269.728 8-109286489.346 7
 90  2 22 10 16 14.0800000  0  4G 3G16G19G13
  21298153.472    21298157.656    49590932.903 8 -84670060.828 8
  22548478.366    22548480.872     2201796.826 8 -14923172.432 8
  23729493.087    23729494.676    11276635.155 7  -7624858.937 7
  22977009.442    22977014.671    99264324.879 7-109267745.093 7
 90  2 22 10 16 29.0800000  0  4G 3G16G19G13
  21297410.854    21297413.988    49587027.860 9 -84673103.722 8
  22539298.676    22539305.298     2153583.753 9 -14960741.040 9
  23735515.343    23735517.948    11308283.696 8  -7600197.753 6
  22981591.298    22981597.493    99288405.581 7-109248980.935 8
 90  2 22 10 16 44.0800000  0  4G 3G16G19G13
  21296674.703    21296676.383    49583157.783 8 -84676119.349 7
  22530139.714    22530140.037     2105428.418 8 -14998264.636 8
  23741548.748    23741552.060    11339989.341 8  -7575492.019 6
  22986179.136    22986183.789    99312512.001 7-109230196.712 7
 90  2 22 10 16 59.0800000  0  4G 3G16G19G13
  21295944.420    21295946.900    49579322.743 9 -84679107.694 7
  22520985.939    22520988.257     2057331.107 9 -15035743.089 7
  23747593.606    23747598.402    11371751.978 8  -7550741.918 8
  22990769.527    22990777.522    99336644.377 6-109211392.310 7
 90  2 22 10 17 14.0800000  0  4G 3G16G19G13
  21295221.232    21295224.098    49575522.981 8 -84682068.570 7
  22511841.751    22511847.326     2009292.055 8 -15073176.079 8
  23753647.176    23753652.381    11403571.208 8  -7525947.720 7
  22995367.792    22995372.424    99360802.613 8-109192567.708 8
 90  2 22 10 17 29.0800000  0  4G 3G16G19G13
  21294505.121    21294508.918    49571758.645 8 -84685001.802 8
  22502714.992    22502715.793     1961311.707 9 -15110563.334 7
  23759713.982    23759719.648    11435446.599 7  -7501109.809 7
  22999967.416    22999975.916    99384987.070 6-109173722.710 6
 90  2 22 10 17 44.0800000  0  4G 3G16G19G13
  21293795.362    21293798.935    49568029.749 8 -84687907.441 7
  22493592.573    22493598.434     1913390.583 7 -15147904.489 8
  23765784.283    23765794.861    11467377.908 7  -7476228.334 7
  23004574.727    23004582.475    99409197.754 7-109154857.274 8
 90  2 22 10 17 59.0800000  0  4G 3G16G19G13
  21293093.130    21293096.988    49564336.363 8 -84690785.407 7
  22484485.730    22484489.808     1865528.659 8 -15185199.443 8
  23771877.969    23771881.214    11499364.595 8  -7451303.653 7
  23009187.884    23009193.767    99433434.368 6-109135971.618 8
 90  2 22 10 18 14.0800000  0  4G 3G16G19G13
  21292396.897    21292399.533    49560678.612 8 -84693635.616 7
  22475390.675    22475393.637     1817726.688 8 -15222447.724 7
  23777975.517    23777979.521    11531406.366 9  -7426336.084 7
  23013803.798    23013813.125    99457697.198 1-109117065.521 1
 90  2 22 10 18 29.0800000  0  4G 3G16G19G13
  21291706.504    21291710.712    49557056.831 5 -84696457.789 1
  22466302.490    22466309.161     1769984.830 8 -15259649.188 8
  23784085.088    23784086.736    11563502.921 8  -7401325.728 6
                  23018426.945    99481997.710 6
 90  2 22 10 18 44.0800000  0  4G 3G16G19G13
  21291024.593    21291026.708    49553470.771 2 -84699252.107 1
  22457231.379    22457234.615     1722303.427 9 -15296803.473 8
  23790198.798    23790204.087    11595653.827 8  -7376273.113 7
  23023054.470    23023060.549    99506314.503 7-108979373.294 7
 90  2 22 10 18 59.0800000  0  4G 3G16G19G13
  21290348.762    21290349.762    49549920.839 1 -84702018.293 1
  22448169.168    22448171.355     1674682.984 8 -15333910.323 7
  23796331.118    23796331.896    11627858.814 8  -7351178.266 7
  23027688.936    23027691.439    99530656.978 8-108960405.148 7
 90  2 22 10 19 14.0800000  0  4G 3G16G19G13
  21289678.487    21289682.895    49546406.805 2 -84704756.517 1
  22439117.259    22439122.582     1627123.717 8 -15370969.475 8
  23802468.251    23802470.465    11660117.634 8  -7326041.548 6
  23032325.647    23032331.881    99555026.181 7-108941416.184 8
 90  2 22 10 19 29.0800000  0  4G 3G16G19G13
  21289019.157    21289023.103    49542929.096 4 -84707466.406 3
  22430082.763    22430083.980     1579626.008 8 -15407980.642 7
  23808613.574    23808618.706    11692429.852 7  -7300863.202 6
                  22662645.360    -3683684.715 1
 90  2 22 10 19 44.0800000  0  4G 3G16G19G13
  21288364.076    21288366.376    49539487.681 4 -84710148.035 3
  22421054.790    22421057.142     1532190.197 3 -15444943.633 1
  23814774.898    23814780.190    11724794.959 1  -7275643.694 7
                  22666813.114    -3766065.457 1
 90  2 22 10 19 59.0800000  0  3G 3G16G19
  21287717.402    21287719.547    49536082.652 1 -84712801.288 1
  22412037.763    22412042.638     1484816.697 8 -15481858.017 8
  23820942.935    23820950.040    11757212.505 6  -7250383.302 8
 90  2 22 10 20 14.0800000  0  3G 3G16G19
  21287075.987    21287076.783    49532714.275 1 -84715426.023 3
  22403038.152    22403039.487     1437505.939 9 -15518723.529 8
  23827122.226    23827129.137    11789682.267 7  -7225082.226 8
 90  2 22 10 20 29.0800000  0  3G 3G16G19
  21286440.233    21286445.220    49529382.435 1 -84718022.240 1
  22394043.549    22394046.943     1390258.091 8 -15555540.043 7
  23833312.832    23833315.127    11822203.826 8  -7199740.751 6
 90  2 22 10 20 44.0800000  0  4G 3G16G19G13
  21285814.119    21285817.589    49526087.471 8 -84720589.776 7
  22385066.434    22385069.359     1343073.645 8 -15592307.101 8
  23839509.000    23839514.263    11854776.995 7  -7174359.055 7
                  23060229.298    -3873767.962 8
 90  2 22 10 20 59.0800000  0  4G 3G16G19G13
  21285194.481    21285196.385    49522829.185 8 -84723128.673 7
  22376100.567    22376102.564     1295952.842 9 -15629024.603 8
  23845717.912    23845722.778    11887401.132 7  -7148937.665 7
  23064930.030    23064937.236    -3849209.935 7   5342366.964 1
 90  2 22 10 21 14.0800000  0  4G 3G16G19G13
  21284580.793    21284583.218    49519607.926 8 -84725638.755 7
  22367143.213    22367148.157     1248896.261 9 -15665692.052 8
  23851932.957    23851937.762    11920076.266 7  -7123476.528 6
  23069609.347    23069613.752    -3824624.356 8   5361524.082 7
 90  2 22 10 21 29.0800000  0  4G 3G16G19G13
  21283974.849    21283977.216    49516423.874 8 -84728119.841 7
  22358202.457    22358204.941     1201904.057 8 -15702309.335 7
  23858162.657    23858161.659    11952801.646 7  -7097976.210 7
  23074295.253    23074296.030    -3800011.260 9   5380703.126 8
 90  2 22 10 21 44.0800000  0  4G 3G16G19G13
  21283376.367    21283379.421    49513276.888 8 -84730572.024 8
  22349272.906    22349276.406     1154976.759 9 -15738876.070 7
  23864398.552    23864404.964    11985577.197 7  -7072436.886 8
  23078985.496    23078986.577    -3775370.548 8   5399903.671 7
 90  2 22 10 21 59.0800000  0  4G 3G16G19G13
  21282785.061    21282786.728    49510167.343 9 -84732995.067 7
  22340354.059    22340359.232     1108114.548 9 -15775392.053 9
  23870648.304    23870652.619    12018402.336 8  -7046858.890 8
  23083678.320    23083682.607    -3750702.214 8   5419125.729 7
 90  2 22 10 22 14.0800000  0  4G 3G16G19G13
  21282200.173    21282202.777    49507095.255 8 -84735388.891 7
  22331450.006    22331451.674     1061317.814 8 -15811857.014 8
  23876906.242    23876907.513    12051276.601 8  -7021242.552 7
  23088380.361    23088381.245    -3726006.109 8   5438369.451 8
 90  2 22 10 22 29.0800000  0  4G 3G16G19G13
  21281623.320    21281625.472    49504060.686 9 -84737753.503 7
  22322556.772    22322562.318     1014586.949 8 -15848270.708 8
  23883167.594    23883172.844    12084199.861 8  -6995588.080 7
  23093080.326    23093087.052    -3701282.145 8   5457634.830 7
 90  2 22 10 22 44.0800000  0  4G 3G16G19G13
  21281052.448    21281055.280    49501063.902 9 -84740088.653 8
  22313677.160    22313681.919      967922.290 8 -15884632.726 8
  23889442.712    23889447.446    12117171.517 8  -6969895.893 7
  23097786.663    23097795.935    -3676530.176 8   5476922.046 8
 90  2 22 10 22 59.0800000  0  4G 3G16G19G13
  21280489.116    21280493.058    49498104.829 8 -84742394.436 7
  22304810.727    22304812.538      921324.332 9 -15920942.806 8
  23895726.221    23895731.249    12150191.473 6  -6944166.079 7
  23102504.299    23102510.553    -3651750.233 8   5496231.061 7
 90  2 22 10 23 14.0800000  0  4G 3G16G19G13
  21279933.368    21279936.874    49495183.645 8 -84744670.678 6
  22295954.925    22295957.237      874793.219 8 -15957200.841 7
  23902016.370    23902019.803    12183259.076 8  -6918399.149 8
  23107225.589    23107232.873    -3626942.142 8   5515562.012 7
 90  2 22 10 23 29.0800000  0  4G 3G16G19G13
  21279384.547    21279388.031    49492300.532 7 -84746917.266 7
  22287113.104    22287118.763      828329.316 8 -15993406.469 8
  23908318.608    23908320.945    12216374.131 7  -6892595.239 6
  23111951.882    23111958.173    -3602105.899 8   5534914.892 7
 90  2 22 10 23 44.0800000  0  4G 3G16G19G13
  21278843.315    21278846.284    49489455.395 8 -84749134.259 6
  22278284.676    22278288.390      781933.170 9 -16029559.266 8
  23914633.429    23914633.399    12249536.395 8  -6866754.486 6
  23116682.377    23116688.974    -3577241.505 8   5554289.736 6
 90  2 22 10 23 59.0800000  0  4G 3G16G19G13
  21278309.562    21278311.328    49486648.600 8 -84751321.386 7
  22269467.666    22269471.037      735605.110 8 -16065659.046 8
  23920948.856    23920954.056    12282745.551 7  -6840877.226 7
  23121421.592    23121422.783    -3552348.630 8   5573686.813 6
 90  2 22 10 24 14.0800000  0  4G 3G16G19G13
  21277782.618    21277785.429    49483880.048 8 -84753478.687 8
  22260666.397    22260671.028      689345.262 9 -16101705.681 7
  23927276.549    23927282.882    12316000.967 9  -6814963.996 7
  23126161.279    23126166.026    -3527427.189 7   5593106.093 5
 90  2 22 10 24 29.0800000  0  4G 3G16G19G13
  21277262.659    21277266.099    49481149.863 8 -84755606.101 6
  22251874.915    22251879.774      643154.151 7 -16137698.721 9
  23933615.560    23933618.077    12349302.102 9  -6789015.021 7
  23130909.838    23130914.013    -3502477.117 8   5612547.658 7
 90  2 22 10 24 44.0800000  0  4G 3G16G19G13
  21276750.897    21276751.612    49478458.417 8 -84757703.322 7
  22243098.830    22243100.771      597032.063 9 -16173637.996 8
  23939960.118    23939964.636    12382649.126 7  -6763030.349 7
  23135664.772    23135667.138    -3477498.324 8   5632011.662 6
 90  2 22 10 24 59.0800000  0  4G 3G16G19G13
  21276245.583    21276249.617    49475805.673 9 -84759770.420 7
  22234335.208    22234339.567      550979.299 8 -16209523.293 8
  23946317.058    23946318.959    12416041.348 7  -6737010.394 7
  23140425.766    23140425.254    -3452490.824 8   5651497.999 6
 90  2 22 10 25 14.0800000  0  4G 3G16G19G13
  21275748.438    21275750.291    49473191.693 8 -84761807.290 7
  22225584.408    22225589.753      504996.325 9 -16245354.139 8
  23952678.704    23952683.588    12449478.525 7  -6710955.526 8
  23145187.758    23145189.264    -3427454.579 7   5671006.763 7
 90  2 22 10 25 29.0800000  0  4G 3G16G19G13
  21275257.633    21275261.772    49470616.808 8 -84763813.703 7
  22216849.105    22216849.642      459083.419 8 -16281130.390 8
  23959051.807    23959053.357    12482960.058 7  -6684865.979 8
  23149959.723    23149959.953    -3402389.667 8   5690537.847 7
 90  2 22 10 25 44.0800000  0  4G 3G16G19G13
  21274775.481    21274777.752    49468081.009 8 -84765789.639 8
  22208124.404    22208129.392      413241.155 8 -16316851.676 8
  23965426.923    23965435.950    12516485.870 7  -6658742.076 7
  23154734.339    23154735.974    -3377295.719 9   5710091.558 6
 90  2 22 10 25 59.0800000  0  4G 3G16G19G13
  21274300.946    21274305.503    49465584.449 8 -84767735.035 8
  22199413.583    22199420.245      367469.486 8 -16352517.872 8
  23971817.316    23971822.358    12550055.483 7  -6632583.964 8
  23159513.359    23159516.275    -3352172.682 9   5729667.945 7
 90  2 22 10 26 14.0800000  0  4G 3G16G19G13
  21273833.250    21273836.627    49463127.170 8 -84769649.785 6
  22190718.560    22190719.884      321769.022 7 -16388128.586 8
  23978216.652    23978216.077    12583668.483 7  -6606392.002 7
  23164301.061    23164303.288    -3327020.605 9   5749266.961 7
 90  2 22 10 26 29.0800000  0  4G 3G16G19G13
  21273373.281    21273377.223    49460709.246 8 -84771533.886 7
  22182034.225    22182039.098      276140.130 8 -16423683.598 7
  23984621.890    23984625.207    12617324.544 8  -6580166.499 7
  23169094.901    23169094.738    -3301839.089 7   5768888.915 7
 90  2 22 10 26 44.0800000  0  4G 3G16G19G13
  21272920.105    21272925.067    49458330.948 8 -84773387.102 7
  22173365.688    22173371.133      230583.227 9 -16459182.442 7
  23991030.612    23991035.239    12651023.390 8  -6553907.685 6
  23173890.416    23173894.209    -3276628.136 8   5788533.786 7
 90  2 22 10 26 59.0800000  0  4G 3G16G19G13
  21272476.621    21272477.195    49455992.295 9 -84775209.435 7
  22164711.503    22164713.443      185098.489 9 -16494625.064 8
  23997451.619    23997453.499    12684764.553 8  -6527615.824 7
  23178694.345    23178697.740    -3251387.596 9   5808201.721 7
 90  2 22 10 27 14.0800000  0  4G 3G16G19G13
  21272038.623    21272040.076    49453693.523 8 -84777000.687 7
  22156067.563    22156071.778      139686.210 8 -16530011.265 8
  24003879.823    24003884.958    12718547.539 8  -6501291.433 7
  23183502.781    23183507.003    -3226117.538 9   5827892.658 7
 90  2 22 10 27 29.0800000  0  4G 3G16G19G13
  21271608.643    21271610.746    49451434.678 8 -84778760.820 6
  22147442.583    22147446.913       94347.072 9 -16565340.457 8
  24010315.648    24010320.088    12752372.059 7  -6474934.679 7
  23188318.450    23188322.043    -3200817.829 9   5847606.696 8
 90  2 22 10 27 44.0800000  0  4G 3G16G19G13
  21271184.755    21271188.821    49449215.963 8 -84780489.708 7
  22138825.573    22138830.461       49081.090 8 -16600612.619 7
  24016758.582    24016766.272    12786237.943 7  -6448545.743 7
  23193137.468    23193140.520    -3175488.635 8   5867343.715 8
 90  2 22 10 27 59.0800000  0  4G 3G16G19G13
  21270771.355    21270774.939    49447037.491 8 -84782187.213 6
  22130227.165    22130229.692        3888.822 8 -16635827.354 7
  24023214.024    24023221.420    12820144.436 9  -6422125.101 8
  23197963.021    23197966.091    -3150129.317 9   5887104.214 7
 90  2 22 10 28 14.0800000  0  4G 3G16G19G13
  21270365.253    21270367.699    49444899.355 9 -84783853.301 8
  22121642.237    22121647.468      -41229.485 9 -16670984.485 8
  24029671.599    24029680.432    12854091.558 7  -6395672.799 7
  23202794.566    23202798.402    -3124739.982 8   5906888.084 7
 90  2 22 10 28 29.0800000  0  4G 3G16G19G13
  21269965.057    21269968.319    49442801.544 8 -84785487.950 7
  22113068.714    22113074.832      -86273.590 9 -16706083.757 8
  24036143.124    24036144.846    12888078.830 8  -6369189.210 7
  23207633.953    23207635.302    -3099320.755 9   5926695.268 6
 90  2 22 10 28 44.0800000  0  4G 3G16G19G13
  21269574.216    21269578.207    49440744.193 8 -84787091.086 8
  22104514.048    22104515.273     -131243.016 8 -16741124.845 8
  24042613.398    24042621.573    12922105.905 8  -6342674.679 7
  23212474.474    23212479.405    -3073871.493 9   5946525.835 8
 90  2 22 10 28 59.0800000  0  4G 3G16G19G13
  21269190.876    21269193.924    49438727.599 8 -84788662.451 7
  22095968.098    22095974.688     -176137.487 8 -16776107.564 8
  24049099.017    24049104.582    12956172.207 7  -6316129.446 7
  23217325.462    23217327.430    -3048392.006 9   5966379.981 7
 90  2 22 10 29 14.0800000  0  4G 3G16G19G13
  21268814.338    21268817.148    49436751.928 8 -84790201.951 7
  22087442.753    22087444.207     -220956.594 8 -16811031.485 8
  24055583.306    24055593.006    12990277.597 7  -6289553.907 7
  23222177.691    23222179.202    -3022882.161 8   5986257.758 7
 90  2 22 10 29 29.0800000  0  4G 3G16G19G13
  21268445.568    21268449.617    49434817.146 8 -84791709.585 7
  22078925.350    22078929.007     -265699.807 8 -16845896.342 8
  24062087.250    24062087.576    13024421.650 8  -6262948.121 6
  23227037.837    23227042.120    -2997342.123 8   6006159.059 7
 90  2 22 10 29 44.0800000  0  4G 3G16G19G13
  21268086.321    21268088.786    49432923.471 8 -84793185.161 7
  22070427.092    22070431.064     -310367.118 9 -16880702.007 8
  24068589.847    24068594.624    13058604.145 8  -6236312.409 8
  23231902.021    23231906.659    -2971771.487 8   6026084.198 7
 90  2 22 10 29 59.0800000  0  4G 3G16G19G13
  21267733.822    21267737.195    49431071.108 9 -84794628.566 8
  22061941.913    22061944.654     -354957.930 9 -16915448.084 8
  24075100.437    24075108.340    13092824.356 7  -6209647.360 8
  23236777.360    23236778.556    -2946170.308 8   6046033.177 7
 90  2 22 10 30 14.0800000  0  4G 3G16G19G13
  21267389.142    21267391.425    49429259.966 8 -84796039.827 6
  22053469.627    22053471.867     -399471.867 9 -16950134.256 7
  24081614.975    24081626.342    13127081.929 6  -6182953.143 5
  23241652.294    23241655.679    -2920538.470 8   6066006.030 8
 90  2 22 10 30 29.0800000  0  4G 3G16G19G13
  21267051.924    21267055.165    49427490.252 8 -84797418.840 7
  22045015.856    22045019.513     -443908.831 8 -16984760.454 8
  24088146.878    24088153.173    13161376.558 6  -6156230.092 8
  23246534.612    23246540.559    -2894875.991 7   6086002.726 7
 90  2 22 10 30 44.0800000  0  4G 3G16G19G13
  21266722.301    21266726.336    49425762.304 9 -84798765.280 7
  22036571.916    22036577.662     -488268.449 8 -17019326.371 9
  24094683.232    24094687.315    13195707.963 8  -6129478.315 8
  23251426.482    23251428.342    -2869182.765 7   6106023.439 7
 90  2 22 10 30 59.0800000  0  4G 3G16G19G13
  21266402.713    21266404.383    49424076.065 8 -84800079.234 7
  22028147.566    22028148.232     -532550.165 9 -17053831.573 7
  24101218.790    24101224.519    13230075.927 7  -6102698.111 7
  23256315.028    23256324.294    -2843458.271 7   6126068.406 8
 90  2 22 10 31 14.0800000  0  4G 3G16G19G13
  21266089.281    21266092.346    49422431.643 8 -84801360.608 7
  22019734.219    22019738.519     -576753.690 9 -17088275.906 7
  24107770.684    24107773.093    13264479.972 8  -6075889.763 8
  23261220.494    23261227.402    -2817702.886 8   6146137.521 7
 90  2 22 10 31 29.0800000  0  4G 3G16G19G13
  21265783.869    21265786.827    49420829.112 8 -84802609.332 7
  22011337.742    22011341.943     -620878.759 9 -17122659.020 8
  24114320.660    24114326.381    13298919.961 7  -6049053.457 8
  23266123.120    23266129.732    -2791916.284 7   6166230.945 8
 90  2 22 10 31 44.0800000  0  4G 3G16G19G13
  21265487.076    21265491.317    49419268.722 8 -84803825.244 7
  22002956.691    22002959.103     -664925.037 8 -17156980.799 8
  24120880.036    24120884.348    13333395.298 7  -6022189.533 7
  23271040.285    23271045.269    -2766098.608 7   6186348.588 8
 90  2 22 10 31 59.0800000  0  4G 3G16G19G13
  21265197.775    21265200.412    49417750.739 9 -84805008.071 7
  21994588.962    21994594.493     -708892.076 9 -17191240.829 8
  24127443.283    24127453.204    13367905.513 6  -5995298.502 7
  23275957.481    23275965.109    -2740249.710 7   6206490.553 8
 90  2 22 10 32 14.0800000  0  4G 3G16G19G13
  21264918.375    21264921.662    49416275.096 8 -84806157.924 7
  21986239.448    21986242.532     -752779.738 8 -17225438.968 8
  24134023.659    24134025.753    13402450.066 8  -5968380.636 7
  23280884.258    23280889.374    -2714369.535 8   6226656.930 7
 90  2 22 10 32 29.0800000  0  4G 3G16G19G13
  21264644.965    21264647.247    49414841.883 9 -84807274.706 6
  21977900.222    21977903.737     -796587.506 9 -17259574.884 7
  24140603.763    24140608.612    13437028.827 8  -5941436.217 8
  23285814.510    23285820.150    -2688457.822 7   6246847.862 8
 90  2 22 10 32 44.0800000  0  4G 3G16G19G13
  21264380.381    21264383.568    49413451.338 8 -84808358.256 7
  21969582.647    21969584.344     -840315.131 8 -17293648.350 7
  24147190.820    24147195.054    13471641.418 7  -5914465.350 8
  23290750.643    23290758.127    -2662514.336 7   6267063.503 7
 90  2 22 10 32 59.0800000  0  4G 3G16G19G13
  21264122.515    21264126.714    49412103.589 9 -84809408.457 8
  21961274.573    21961279.804     -883962.138 9 -17327659.004 8
  24153783.223    24153785.803    13506287.413 8  -5887468.497 7
  23295694.132    23295701.806    -2636539.446 7   6287303.653 7
 90  2 22 10 33 14.0800000  0  4G 3G16G19G13
  21263875.266    21263879.488    49410798.870 8 -84810425.119 7
  21952983.484    21952986.424     -927528.287 8 -17361606.620 8
  24160384.962    24160386.655    13540966.445 8  -5860445.857 7
  23300642.434    23300647.689    -2610532.961 8   6307568.433 7
 90  2 22 10 33 29.0800000  0  4G 3G16G19G13
  21263634.865    21263638.726    49409537.033 8 -84811408.364 7
  21944709.994    21944713.051     -971013.163 9 -17395490.929 7
  24166986.493    24166992.837    13575678.127 7  -5833397.800 7
  23305598.945    23305602.537    -2584494.711 6   6327857.984 7
 90  2 22 10 33 44.0800000  0  4G 3G16G19G13
  21263403.689    21263406.640    49408318.469 8 -84812357.906 8
  21936449.112    21936454.272    -1014416.541 8 -17429311.727 8
  24173599.537    24173600.901    13610422.192 7  -5806324.523 7
  23310560.368    23310566.070    -2558424.342 7   6348172.527 8
 90  2 22 10 33 59.0800000  0  4G 3G16G19G13
  21263178.788    21263183.081    49407143.312 8 -84813273.606 8
  21928206.932    21928208.714    -1057737.944 8 -17463068.647 7
  24180214.590    24180222.723    13645198.304 7  -5779226.326 7
  23315526.459    23315531.263    -2532321.769 7   6368512.164 7
 90  2 22 10 34 14.0800000  0  4G 3G16G19G13
  21262964.329    21262966.157    49406011.453 8 -84814155.570 7
  21919977.815    21919982.445    -1100977.264 9 -17496761.610 7
  24186838.938    24186844.752    13680006.115 8  -5752103.358 7
  23320500.738    23320503.442    -2506186.938 6   6388876.960 7
 90  2 22 10 34 29.0800000  0  4G 3G16G19G13
  21262757.326    21262759.815    49404923.204 8 -84815003.567 7
  21911767.044    21911768.998    -1144134.008 8 -17530390.213 8
  24193473.996    24193471.253    13714845.229 7  -5724955.949 7
  23325479.152    23325485.585    -2480019.971 7   6409266.752 8
 90  2 22 10 34 44.0800000  0  4G 3G16G19G13
  21262558.861    21262561.661    49403878.666 8 -84815817.497 8
  21903566.446    21903572.578    -1187207.699 9 -17563954.135 8
  24200107.781    24200109.510    13749715.424 8  -5697784.412 6
  23330462.912    23330469.537    -2453820.730 8   6429681.715 8
 90  2 22 10 34 59.0800000  0  4G 3G16G19G13
  21262368.388    21262372.155    49402878.052 8 -84816597.198 8
  21895387.855    21895393.244    -1230198.304 9 -17597453.287 8
  24206745.114    24206751.800    13784616.026 7  -5670589.155 7
  23335459.579    23335462.458    -2427589.258 8   6450121.829 7
 90  2 22 10 35 14.0800000  0  4G 3G16G19G13
  21262186.715    21262190.163    49401921.397 8 -84817342.648 8
  21887222.873    21887227.275    -1273105.247 9 -17630887.264 8
  24213394.674    24213397.283    13819546.706 8  -5643370.418 7
  23340452.470    23340460.188    -2401325.424 8   6470587.117 7
 90  2 22 10 35 29.0800000  0  4G 3G16G19G13
  21262012.837    21262015.047    49401008.780 8 -84818053.781 8
  21879073.530    21879077.474    -1315928.315 9 -17664255.862 7
  24220044.048    24220052.546    13854507.263 7  -5616128.494 8
  23345458.001    23345462.230    -2375029.015 8   6491077.802 8
 90  2 22 10 35 44.0800000  0  4G 3G16G19G13
  21261847.880    21261849.086    49400140.460 8 -84818730.395 7
  21870942.175    21870945.045    -1358667.140 9 -17697558.836 8
  24226703.461    24226709.210    13889497.216 7  -5588863.572 7
  23350469.334    23350473.284    -2348699.940 8   6511593.974 7
 90  2 22 10 35 59.0800000  0  4G 3G16G19G13
  21261690.476    21261693.273    49399316.655 8 -84819372.314 7
  21862822.181    21862828.270    -1401321.300 9 -17730795.832 7
  24233371.623    24233374.232    13924516.293 8  -5561576.000 7
  23355483.139    23355490.796    -2322337.974 8   6532135.739 8
 90  2 22 10 36 14.0800000  0  4G 3G16G19G13
  21261541.449    21261547.133    49398537.446 8 -84819979.501 7
  21854725.754    21854727.522    -1443890.594 9 -17763966.677 8
  24240039.464    24240042.424    13959564.220 8  -5534265.924 8
  23360507.933    23360513.261    -2295943.281 9   6552703.004 7
 90  2 22 10 36 29.0800000  0  4G 3G16G19G13
  21261402.300    21261406.019    49397802.833 8 -84820551.934 7
  21846638.686    21846643.086    -1486374.591 9 -17797071.095 8
  24246713.829    24246715.250    13994640.474 7  -5506933.761 7
  23365537.837    23365542.313    -2269515.822 8   6573295.844 7
 90  2 22 10 36 44.0800000  0  4G 3G16G19G13
  21261270.211    21261274.375    49397113.081 8 -84821089.399 8
  21838571.807    21838573.217    -1528773.012 9 -17830108.798 7
  24253392.923    24253400.762    14029744.616 7  -5479579.974 7
  23370570.236    23370576.341    -2243055.246 7   6593914.451 8
 90  2 22 10 36 59.0800000  0  4G 3G16G19G13
  21261148.290    21261150.783    49396468.360 8 -84821591.786 8
  21830518.908    21830523.209    -1571085.477 9 -17863079.549 8
  24260080.138    24260080.637    14064876.046 7  -5452204.819 6
  23375611.773    23375618.445    -2216561.525 7   6614558.880 8
 90  2 22 10 37 14.0800000  0  4G 3G16G19G13
  21261034.815    21261038.277    49395868.590 8 -84822059.140 8
  21822483.682    21822487.911    -1613311.827 8 -17895983.169 7
  24266770.523    24266769.662    14100034.610 8  -5424808.473 7
  23380662.657    23380666.771    -2190034.702 9   6635229.119 8
 90  2 22 10 37 29.0800000  0  4G 3G16G19G13
  21260928.802    21260932.512    49395314.106 9 -84822491.205 7
  21814464.510    21814467.237    -1655451.619 9 -17928819.359 8
  24273464.219    24273471.501    14135219.990 7  -5397391.328 8
  23385713.787    23385720.102    -2163474.783 7   6655925.138 8
 90  2 22 10 37 44.0800000  0  4G 3G16G19G13
  21260832.747    21260835.648    49394804.907 8 -84822887.981 7
  21806461.565    21806466.252    -1697504.470 8 -17961587.806 7
  24280163.619    24280169.118    14170432.026 8  -5369953.458 7
  23390776.712    23390780.894    -2136881.426 8   6676647.234 7
 90  2 22 10 37 59.0800000  0  4G 3G16G19G13
  21260743.118    21260745.443    49394341.341 8 -84823249.211 6
  21798476.993    21798479.749    -1739470.026 8 -17994288.210 8
  24286871.046    24286876.531    14205670.005 7  -5342495.319 7
  23395843.522    23395850.370    -2110254.442 9   6697395.508 8
 90  2 22 10 38 14.0800000  0  4G 3G16G19G13
  21260664.686    21260666.743    49393923.371 8 -84823574.899 8
  21790507.861    21790510.473    -1781348.015 9 -18026920.393 7
  24293580.891    24293582.863    14240933.525 7  -5315017.203 6
  23400918.091    23400922.900    -2083594.232 9   6718169.691 8
 90  2 22 10 38 29.0800000  0  4G 3G16G19G13
  21260593.616    21260596.184    49393551.298 9 -84823864.832 7
  21782555.026    21782558.969    -1823137.969 9 -18059483.995 7
  24300296.238    24300298.832    14276222.757 7  -5287519.086 6
  23405996.895    23406002.470    -2056900.266 8   6738970.150 8
 90  2 22 10 38 44.0800000  0  4G 3G16G19G13
  21260531.500    21260533.335    49393225.265 8 -84824118.891 8
  21774620.208    21774623.063    -1864839.620 9 -18091978.765 8
  24307015.198    24307020.525    14311537.007 7  -5260001.498 7
  23411084.150    23411088.136    -2030172.619 7   6759796.905 7
 90  2 22 10 38 59.0800000  0  4G 3G16G19G13
  21260478.456    21260481.690    49392945.205 8 -84824337.133 7
  21766701.358    21766703.183    -1906452.753 9 -18124404.552 7
  24313741.083    24313746.783    14346876.015 8  -5232464.668 8
  23416175.321    23416181.049    -2003411.375 7   6780649.791 7
 90  2 22 10 39 14.0800000  0  4G 3G16G19G13
  21260433.397    21260437.059    49392711.385 8 -84824519.337 7
  21758797.847    21758803.021    -1947976.984 9 -18156761.095 7
  24320471.497    24320476.847    14382239.249 7  -5204908.906 8
  23421274.477    23421280.606    -1976616.269 7   6801529.070 8
 90  2 22 10 39 29.0800000  0  4G 3G16G19G13
  21260397.977    21260401.790    49392524.011 8 -84824665.348 7
  21750914.413    21750917.740    -1989412.047 9 -18189048.129 7
  24327206.126    24327211.669    14417626.370 7  -5177334.598 7
  23426380.412    23426384.408    -1949787.373 8   6822434.703 8
 90  2 22 10 39 44.0800000  0  4G 3G16G19G13
  21260372.382    21260375.243    49392384.711 9 -84824773.883 7
  21743046.518    21743051.605    -2030755.905 9 -18221264.124 7
  24333943.008    24333948.136    14453038.378 7  -5149740.715 6
  23431491.665    23431497.384    -1922922.906 8   6843368.034 7
 90  2 22 10 39 59.0800000  0  4G 3G16G19G13
  21260353.945    21260355.876    49392292.265 8 -84824845.914 7
  21735195.637    21735200.953    -2072009.495 9 -18253409.753 8
  24340687.589    24340687.787    14488473.983 8  -5122128.519 6
  23436610.093    23436616.780    -1896023.740 7   6864328.391 8
 90  2 22 10 40 14.0800000  0  4G 3G16G19G13
  21260344.472    21260348.392    49392246.036 8 -84824881.940 7
  21727363.715    21727366.012    -2113173.743 9 -18285485.776 7
  24347434.652    24347441.032    14523931.635 7  -5094499.210 8
  23441735.295    23441742.980    -1869090.963 7   6885314.940 8
 90  2 22 10 40 29.0800000  0  4G 3G16G19G13
  21260345.739    21260348.686    49392246.842 8 -84824881.310 7
  21719547.004    21719551.562    -2154247.208 9 -18317491.074 7
  24354180.685    24354190.012    14559411.991 6  -5066852.322 8
  23446868.885    23446873.498    -1842123.880 7   6906328.262 8
 90  2 22 10 40 44.0800000  0  4G 3G16G19G13
  21260353.706    21260358.616    49392294.636 8 -84824844.099 7
  21711748.437    21711752.681    -2195229.822 8 -18349425.542 8
  24360942.472    24360947.507    14594914.290 9  -5039188.229 7
  23452002.587    23452011.854    -1815122.387 6   6927368.330 7
